Starlink 31048

operational
NORAD ID: 58544 Int'l Des: 2023-192 Owner: SPXS Country: US Constellation: starlink
LEOCIRCULAR

Starlink 31048について

説明を読み込み中...

リアルタイム位置

3D地球を読み込み中...

次回通過

高度履歴

Altitude vs Time

uPlot chart will show altitude changes over time

軌道要素

1 58544U 23192P 25258.41578820 .00008502 00000-0 29877-3 0 9991
2 58544 53.1581 156.5800 0000589 73.4836 286.6229 15.30207303 99152
Epoch: Sep 15, 2025 • Age: 24 hours

現在のステータス

高度 476.6 km
速度 7.63 km/s
衛星直下点 29.43°N, 159.77°E
打ち上げ日 Dec 8, 2023
運用期間 1.7 years
タイプ internet

技術仕様

分類 Payload
質量 730.00 kg
乾燥質量 700.00 kg
総質量 730.00 kg
長さ 0.30 m
直径 4.10 m
スパン 29.00 m
形状 Box + pan
製造者 SPXS
バスタイプ Starlink V2M
フェーズステータス In Orbit
所有者/国 SPXS/US

大規模コンステレーション

Loading constellations...